Home > Weather > Paderborn > Past weeks

Flag for Germany Weather for the Past 2 Weeks in Paderborn, North Rhine-Westphalia, Germany

Now
45 °F

Passing clouds.


Feels Like: 37 °F
Forecast: 39 / 45 °F
Wind: 20 mph from South

Location: Paderborn / Lippstadt

Current Time: Feb 8, 2016 at 6:18:33 AM

Latest Report: Feb 8, 2016 at 5:20 AM


Visibility: N/A

Pressure: 29.39 "Hg

Humidity: 66%

Dew point: 34 °F

Location of PaderbornLocation

Historic Weather in Paderborn — Graph

°F

Paderborn Temperature Yesterday

Maximum temperature yesterday: 50 °F (at 1:50 AM)
Minimum temperature yesterday: 41 °F (at 7:20 PM)
Average temperature yesterday: 46 °F

High & Low Weather Summary for the Past Weeks

 TemperatureHumidityPressure
High54 °F (Jan 25, 11:50 AM)100% (Jan 24, 4:50 PM)30.45 "Hg (Jan 24, 4:50 PM)
Low32 °F (Jan 30, 8:20 PM)44% (Jan 25, 8:50 PM)29.42 "Hg (Feb 8, 4:20 AM)
Average44 °F80%30.01 "Hg
* Reported Jan 24 4:20 AM — Feb 8 4:20 AM, Paderborn, Weather by CustomWeather, © 2016

Note: Actual official high and low records may vary slightly from our data, if they occured in-between our weather recording intervals... More about our weather records

Advertising

Paderborn Weather History for the Previous 24 Hours

 ConditionsComfort  
Time TempWeatherWind HumidityBarometerVisibility
4:20 AM
Mon, Feb 8
45 °FClear.24 mph61%29.42 "Hg10 mi
3:50 AM43 °FPassing clouds.18 mph66%29.45 "HgN/A
2:50 AM43 °FClear.22 mph61%29.47 "Hg10 mi
1:50 AM43 °FClear.22 mph61%29.50 "Hg10 mi
1:20 AM41 °FClear.18 mph66%29.53 "Hg10 mi
12:50 AM41 °FClear.18 mph66%29.56 "Hg10 mi
11:50 PM
Sun, Feb 7
41 °FClear.17 mph66%29.59 "Hg10 mi
11:20 PM41 °FClear.14 mph66%29.62 "Hg10 mi
10:50 PM41 °FClear.16 mph66%29.62 "Hg10 mi
10:20 PM41 °FClear.14 mph66%29.62 "Hg10 mi
9:50 PM41 °FClear.17 mph66%29.62 "Hg10 mi
9:20 PM41 °FClear.16 mph66%29.62 "Hg10 mi
8:50 PM41 °FClear.15 mph70%29.62 "Hg10 mi
8:20 PM41 °FPassing clouds.16 mph66%29.62 "HgN/A
7:50 PM41 °FPassing clouds.12 mph70%29.62 "HgN/A
7:20 PM41 °FPassing clouds.14 mph70%29.62 "HgN/A
6:50 PM43 °FPassing clouds.13 mph66%29.62 "HgN/A
6:20 PM43 °FPassing clouds.14 mph71%29.62 "HgN/A
5:50 PM45 °FPassing clouds.16 mph66%29.59 "HgN/A
5:20 PM45 °FScattered clouds.9 mph71%29.59 "HgN/A
4:50 PM43 °FScattered clouds.9 mph76%29.59 "HgN/A
4:20 PM45 °FScattered clouds.13 mph71%29.59 "HgN/A
3:50 PM45 °FPartly sunny.17 mph71%29.59 "HgN/A
3:20 PM45 °FPartly sunny.15 mph71%29.56 "HgN/A
2:50 PM46 °FPartly sunny.17 mph66%29.56 "HgN/A
2:20 PM46 °FPartly sunny.17 mph71%29.56 "HgN/A
1:50 PM46 °FPartly sunny.8 mph82%29.53 "HgN/A
1:20 PM48 °FScattered clouds.14 mph82%29.53 "HgN/A
12:50 PM45 °FSprinkles. Partly sunny.13 mph93%29.53 "HgN/A
12:20 PM46 °FSprinkles. Partly sunny.12 mph82%29.53 "HgN/A
11:50 AM50 °FPartly sunny.16 mph67%29.50 "HgN/A
11:20 AM50 °FPartly sunny.17 mph62%29.50 "HgN/A
10:50 AM50 °FScattered clouds.8 mph58%29.50 "HgN/A
10:20 AM48 °FScattered clouds.7 mph62%29.50 "HgN/A
9:50 AM48 °FSunny.12 mph62%29.47 "Hg10 mi
9:20 AM48 °FSunny.15 mph62%29.47 "Hg10 mi
8:50 AM48 °FSunny.16 mph62%29.47 "Hg10 mi
8:20 AM48 °FSunny.16 mph62%29.50 "Hg10 mi
7:50 AM48 °FClear.18 mph62%29.50 "Hg10 mi
7:20 AM50 °FClear.17 mph58%29.50 "Hg10 mi
6:50 AM50 °FClear.14 mph58%29.50 "Hg10 mi
6:20 AM50 °FClear.15 mph58%29.50 "Hg10 mi
Weather by CustomWeather, © 2016

See weather overviewHow to use our weather pages